"Sample Date","Sample Time","Sample Value","Units","Flow Rate","Sample Interval","Number Channels","Micron Size 0","Counts/Channel 0","Micron Size 1","Counts/Channel 1","Micron Size 2","Counts/Channel 2","Micron Size 3","Counts/Channel 3","Micron Size 4","Counts/Channel 4","Micron Size 5","Counts/Channel 5","Micron Size 6","Counts/Channel 6","Micron Size 7","Counts/Channel 7","Micron Size 8","Counts/Channel 8","Micron Size 9","Counts/Channel 9","Micron Size 10","Counts/Channel 10","Micron Size 11","Counts/Channel 11","Micron Size 12","Counts/Channel 12","Micron Size 13","Counts/Channel 13","Micron Size 14","Counts/Channel 14","Micron Size 15","Counts/Channel 15","Micron Size 16","Counts/Channel 16","Micron Size 17","Counts/Channel 17","Micron Size 18","Counts/Channel 18","Micron Size 19","Counts/Channel 19","Micron Size 20","Counts/Channel 20","Micron Size 21","Counts/Channel 21","Micron Size 22","Counts/Channel 22","Micron Size 23","Counts/Channel 23","Micron Size 24","Counts/Channel 24","Micron Size 25","Counts/Channel 25","Micron Size 26","Counts/Channel 26","Micron Size 27","Counts/Channel 27","Micron Size 28","Counts/Channel 28","Micron Size 29","Counts/Channel 29","Micron Size 30","Counts/Channel 30","Micron Size 31","Counts/Channel 31"
"04/01/08","13:00:00",4004.000,"cc",28373.984,6.00,6,0.100,2326.000,0.200,538.000,0.300,448.000,0.500,486.000,1.000,206.000,5.000,0
"04/01/08","13:00:06",3947.000,"cc",28316.363,6.00,6,0.100,2316.000,0.200,513.000,0.300,418.000,0.500,515.000,1.000,185.000,5.000,0
"04/01/08","13:00:12",3886.000,"cc",28261.375,6.00,6,0.100,2311.000,0.200,514.000,0.300,393.000,0.500,496.000,1.000,172.000,5.000,0
"04/01/08","13:00:18",3806.000,"cc",28298.424,6.00,6,0.100,2238.000,0.200,493.000,0.300,392.000,0.500,504.000,1.000,179.000,5.000,0
"04/01/08","13:00:24",3886.000,"cc",28271.863,6.00,6,0.100,2230.000,0.200,508.000,0.300,454.000,0.500,503.000,1.000,191.000,5.000,0
"04/01/08","13:00:30",3989.000,"cc",28326.703,6.00,6,0.100,2277.000,0.200,508.000,0.300,420.000,0.500,570.000,1.000,214.000,5.000,0
"04/01/08","13:00:36",3848.000,"cc",28343.113,6.00,6,0.100,2204.000,0.200,546.000,0.300,447.000,0.500,451.000,1.000,200.000,5.000,0
"04/01/08","13:00:42",4059.000,"cc",28319.926,6.00,6,0.100,2383.000,0.200,550.000,0.300,429.000,0.500,519.000,1.000,178.000,5.000,0
"04/01/08","13:00:48",4064.000,"cc",28373.065,6.00,6,0.100,2459.000,0.200,480.000,0.300,457.000,0.500,473.000,1.000,195.000,5.000,0
"04/01/08","13:00:54",4004.000,"cc",28278.856,6.00,6,0.100,2428.000,0.200,562.000,0.300,397.000,0.500,444.000,1.000,173.000,5.000,0
"04/01/08","13:01:00",3820.000,"cc",28305.902,6.00,6,0.100,2236.000,0.200,524.000,0.300,416.000,0.500,470.000,1.000,174.000,5.000,0
"04/01/08","13:01:06",4057.000,"cc",28345.356,6.00,6,0.100,2380.000,0.200,515.000,0.300,409.000,0.500,553.000,1.000,200.000,5.000,0
"04/01/08","13:01:12",4125.000,"cc",28255.150,6.00,6,0.100,2488.000,0.200,540.000,0.300,430.000,0.500,477.000,1.000,190.000,5.000,0
"04/01/08","13:01:18",4279.000,"cc",28335.346,6.00,6,0.100,2605.000,0.200,512.000,0.300,423.000,0.500,554.000,1.000,185.000,5.000,0
"04/01/08","13:01:24",4330.000,"cc",28329.652,6.00,6,0.100,2650.000,0.200,534.000,0.300,457.000,0.500,470.000,1.000,219.000,5.000,0
"04/01/08","13:01:30",4133.000,"cc",28305.674,6.00,6,0.100,2553.000,0.200,507.000,0.300,371.000,0.500,504.000,1.000,198.000,5.000,0
"04/01/08","13:01:36",4505.000,"cc",28300.865,6.00,6,0.100,2841.000,0.200,535.000,0.300,454.000,0.500,500.000,1.000,175.000,5.000,0
"04/01/08","13:01:42",4576.000,"cc",28348.393,6.00,6,0.100,2884.000,0.200,534.000,0.300,438.000,0.500,513.000,1.000,207.000,5.000,0
"04/01/08","13:01:48",4684.000,"cc",28349.199,6.00,6,0.100,2980.000,0.200,522.000,0.300,448.000,0.500,515.000,1.000,219.000,5.000,0
"04/01/08","13:01:54",4878.000,"cc",28249.076,6.00,6,0.100,3165.000,0.200,568.000,0.300,434.000,0.500,492.000,1.000,219.000,5.000,0
"04/01/08","13:02:00",4681.000,"cc",28292.645,6.00,6,0.100,3055.000,0.200,503.000,0.300,417.000,0.500,503.000,1.000,203.000,5.000,0
"04/01/08","13:02:06",4757.000,"cc",28324.666,6.00,6,0.100,3111.000,0.200,492.000,0.300,416.000,0.500,528.000,1.000,210.000,5.000,0
"04/01/08","13:02:12",4706.000,"cc",28354.047,6.00,6,0.100,3059.000,0.200,501.000,0.300,424.000,0.500,504.000,1.000,218.000,5.000,0
"04/01/08","13:02:18",4757.000,"cc",28333.070,6.00,6,0.100,3133.000,0.200,512.000,0.300,420.000,0.500,483.000,1.000,209.000,5.000,0
"04/01/08","13:02:24",4682.000,"cc",28336.949,6.00,6,0.100,3122.000,0.200,491.000,0.300,417.000,0.500,453.000,1.000,199.000,5.000,0
"04/01/08","13:02:30",4928.000,"cc",28373.256,6.00,6,0.100,3291.000,0.200,525.000,0.300,421.000,0.500,500.000,1.000,191.000,5.000,0
"04/01/08","13:02:36",4812.000,"cc",28330.582,6.00,6,0.100,3245.000,0.200,499.000,0.300,424.000,0.500,467.000,1.000,177.000,5.000,0
"04/01/08","13:02:42",4884.000,"cc",28324.734,6.00,6,0.100,3257.000,0.200,500.000,0.300,455.000,0.500,471.000,1.000,201.000,5.000,0
"04/01/08","13:02:48",4869.000,"cc",28231.631,6.00,6,0.100,3163.000,0.200,572.000,0.300,432.000,0.500,515.000,1.000,187.000,5.000,0
"04/01/08","13:02:54",4805.000,"cc",28275.836,6.00,6,0.100,3148.000,0.200,506.000,0.300,445.000,0.500,514.000,1.000,192.000,5.000,0
"04/01/08","13:03:00",4998.000,"cc",28314.598,6.00,6,0.100,3238.000,0.200,534.000,0.300,469.000,0.500,541.000,1.000,216.000,5.000,0
"04/01/08","13:03:06",4929.000,"cc",28250.381,6.00,6,0.100,3259.000,0.200,542.000,0.300,421.000,0.500,520.000,1.000,187.000,5.000,0
"04/01/08","13:03:12",4611.000,"cc",28450.596,6.00,6,0.100,3013.000,0.200,506.000,0.300,413.000,0.500,480.000,1.000,199.000,5.000,0
"04/01/08","13:03:18",4705.000,"cc",28328.219,6.00,6,0.100,2992.000,0.200,557.000,0.300,449.000,0.500,511.000,1.000,196.000,5.000,0
"04/01/08","13:03:24",4626.000,"cc",28330.244,6.00,6,0.100,2993.000,0.200,536.000,0.300,398.000,0.500,498.000,1.000,201.000,5.000,0
"04/01/08","13:03:30",4748.000,"cc",28304.613,6.00,6,0.100,2951.000,0.200,544.000,0.300,490.000,0.500,550.000,1.000,213.000,5.000,0
"04/01/08","13:03:36",4645.000,"cc",28246.127,6.00,6,0.100,2977.000,0.200,545.000,0.300,442.000,0.500,484.000,1.000,197.000,5.000,0
"04/01/08","13:03:42",4762.000,"cc",28262.520,6.00,6,0.100,3085.000,0.200,559.000,0.300,404.000,0.500,524.000,1.000,190.000,5.000,0
"04/01/08","13:03:48",4819.000,"cc",28397.334,6.00,6,0.100,3146.000,0.200,533.000,0.300,458.000,0.500,492.000,1.000,190.000,5.000,0
"04/01/08","13:03:54",4849.000,"cc",28294.906,6.00,6,0.100,3104.000,0.200,536.000,0.300,438.000,0.500,556.000,1.000,215.000,5.000,0
"04/01/08","13:04:00",4967.000,"cc",28304.063,6.00,6,0.100,3238.000,0.200,582.000,0.300,438.000,0.500,505.000,1.000,204.000,5.000,0
"04/01/08","13:04:06",5045.000,"cc",28329.471,6.00,6,0.100,3396.000,0.200,507.000,0.300,407.000,0.500,529.000,1.000,206.000,5.000,0
"04/01/08","13:04:12",5215.000,"cc",28371.664,6.00,6,0.100,3461.000,0.200,554.000,0.300,452.000,0.500,547.000,1.000,201.000,5.000,0
"04/01/08","13:04:18",5057.000,"cc",28342.723,6.00,6,0.100,3282.000,0.200,551.000,0.300,467.000,0.500,526.000,1.000,231.000,5.000,0
"04/01/08","13:04:24",4920.000,"cc",28233.975,6.00,6,0.100,3164.000,0.200,559.000,0.300,449.000,0.500,538.000,1.000,210.000,5.000,0
"04/01/08","13:04:30",4983.000,"cc",28248.609,6.00,6,0.100,3232.000,0.200,561.000,0.300,440.000,0.500,539.000,1.000,211.000,5.000,0
"04/01/08","13:04:36",4873.000,"cc",28343.199,6.00,6,0.100,3130.000,0.200,543.000,0.300,461.000,0.500,531.000,1.000,208.000,5.000,0
"04/01/08","13:04:42",4759.000,"cc",28310.086,6.00,6,0.100,3028.000,0.200,538.000,0.300,455.000,0.500,537.000,1.000,201.000,5.000,0
"04/01/08","13:04:48",4771.000,"cc",28375.850,6.00,6,0.100,3009.000,0.200,548.000,0.300,439.000,0.500,546.000,1.000,229.000,5.000,0
"04/01/08","13:04:54",4670.000,"cc",28315.672,6.00,6,0.100,2957.000,0.200,526.000,0.300,417.000,0.500,556.000,1.000,214.000,5.000,0
"04/01/08","13:05:00",4744.000,"cc",28335.338,6.00,6,0.100,2972.000,0.200,537.000,0.300,466.000,0.500,552.000,1.000,217.000,5.000,0
"04/01/08","13:05:06",4737.000,"cc",28269.326,6.00,6,0.100,3046.000,0.200,536.000,0.300,443.000,0.500,503.000,1.000,209.000,5.000,0
"04/01/08","13:05:12",4790.000,"cc",28340.065,6.00,6,0.100,3016.000,0.200,527.000,0.300,447.000,0.500,567.000,1.000,233.000,5.000,0
"04/01/08","13:05:18",4875.000,"cc",28309.752,6.00,6,0.100,3093.000,0.200,574.000,0.300,440.000,0.500,534.000,1.000,234.000,5.000,0
"04/01/08","13:05:24",4715.000,"cc",28289.195,6.00,6,0.100,2974.000,0.200,580.000,0.300,416.000,0.500,518.000,1.000,227.000,5.000,0
"04/01/08","13:05:30",4736.000,"cc",28314.332,6.00,6,0.100,3003.000,0.200,526.000,0.300,451.000,0.500,537.000,1.000,219.000,5.000,0
"04/01/08","13:05:36",4736.000,"cc",28333.953,6.00,6,0.100,2962.000,0.200,550.000,0.300,444.000,0.500,548.000,1.000,232.000,5.000,0
"04/01/08","13:05:42",4749.000,"cc",28260.088,6.00,6,0.100,2969.000,0.200,545.000,0.300,447.000,0.500,552.000,1.000,236.000,5.000,0
"04/01/08","13:05:48",4715.000,"cc",28340.846,6.00,6,0.100,3018.000,0.200,529.000,0.300,426.000,0.500,519.000,1.000,223.000,5.000,0
"04/01/08","13:05:54",4615.000,"cc",28358.770,6.00,6,0.100,2906.000,0.200,524.000,0.300,432.000,0.500,528.000,1.000,225.000,5.000,0
"04/01/08","13:06:00",4595.000,"cc",28297.895,6.00,6,0.100,2831.000,0.200,587.000,0.300,487.000,0.500,492.000,1.000,198.000,5.000,0
"04/01/08","13:06:06",4610.000,"cc",28296.123,6.00,6,0.100,2876.000,0.200,511.000,0.300,458.000,0.500,527.000,1.000,238.000,5.000,0
"04/01/08","13:06:12",4629.000,"cc",28301.309,6.00,6,0.100,2946.000,0.200,505.000,0.300,422.000,0.500,539.000,1.000,217.000,5.000,0
"04/01/08","13:06:18",4909.000,"cc",28339.990,6.00,6,0.100,3122.000,0.200,536.000,0.300,471.000,0.500,556.000,1.000,224.000,5.000,0
"04/01/08","13:06:24",5074.000,"cc",28317.889,6.00,6,0.100,3305.000,0.200,535.000,0.300,471.000,0.500,525.000,1.000,238.000,5.000,0
"04/01/08","13:06:30",5081.000,"cc",28376.318,6.00,6,0.100,3289.000,0.200,556.000,0.300,468.000,0.500,548.000,1.000,220.000,5.000,0
"04/01/08","13:06:36",4872.000,"cc",28325.170,6.00,6,0.100,3157.000,0.200,553.000,0.300,429.000,0.500,529.000,1.000,204.000,5.000,0
"04/01/08","13:06:42",4891.000,"cc",28293.033,6.00,6,0.100,3207.000,0.200,517.000,0.300,466.000,0.500,510.000,1.000,191.000,5.000,0
"04/01/08","13:06:48",4925.000,"cc",28324.375,6.00,6,0.100,3164.000,0.200,551.000,0.300,453.000,0.500,540.000,1.000,217.000,5.000,0
"04/01/08","13:06:54",4623.000,"cc",28273.285,6.00,6,0.100,2876.000,0.200,524.000,0.300,471.000,0.500,537.000,1.000,215.000,5.000,0
"04/01/08","13:07:00",4497.000,"cc",28324.346,6.00,6,0.100,2809.000,0.200,524.000,0.300,468.000,0.500,486.000,1.000,210.000,5.000,0
"04/01/08","13:07:06",4488.000,"cc",28371.629,6.00,6,0.100,2737.000,0.200,555.000,0.300,479.000,0.500,523.000,1.000,194.000,5.000,0
"04/01/08","13:07:12",4489.000,"cc",28245.723,6.00,6,0.100,2801.000,0.200,540.000,0.300,426.000,0.500,532.000,1.000,190.000,5.000,0
"04/01/08","13:07:18",4512.000,"cc",28358.580,6.00,6,0.100,2831.000,0.200,549.000,0.300,416.000,0.500,518.000,1.000,198.000,5.000,0
"04/01/08","13:07:24",4293.000,"cc",28350.029,6.00,6,0.100,2689.000,0.200,490.000,0.300,418.000,0.500,492.000,1.000,204.000,5.000,0
"04/01/08","13:07:30",4379.000,"cc",28256.104,6.00,6,0.100,2680.000,0.200,516.000,0.300,457.000,0.500,482.000,1.000,244.000,5.000,0
"04/01/08","13:07:36",4427.000,"cc",28330.732,6.00,6,0.100,2740.000,0.200,499.000,0.300,467.000,0.500,521.000,1.000,200.000,5.000,0
"04/01/08","13:07:42",4446.000,"cc",28314.891,6.00,6,0.100,2812.000,0.200,490.000,0.300,420.000,0.500,513.000,1.000,211.000,5.000,0
"04/01/08","13:07:48",4402.000,"cc",28319.176,6.00,6,0.100,2764.000,0.200,544.000,0.300,392.000,0.500,544.000,1.000,158.000,5.000,0
"04/01/08","13:07:54",4360.000,"cc",28330.453,6.00,6,0.100,2686.000,0.200,534.000,0.300,407.000,0.500,520.000,1.000,213.000,5.000,0
"04/01/08","13:08:00",4508.000,"cc",28328.729,6.00,6,0.100,2863.000,0.200,508.000,0.300,430.000,0.500,512.000,1.000,195.000,5.000,0
"04/01/08","13:08:06",4571.000,"cc",28288.305,6.00,6,0.100,2936.000,0.200,516.000,0.300,431.000,0.500,486.000,1.000,202.000,5.000,0
"04/01/08","13:08:12",4625.000,"cc",28303.672,6.00,6,0.100,2931.000,0.200,563.000,0.300,415.000,0.500,507.000,1.000,209.000,5.000,0
"04/01/08","13:08:18",4495.000,"cc",28305.690,6.00,6,0.100,2865.000,0.200,540.000,0.300,439.000,0.500,466.000,1.000,185.000,5.000,0
"04/01/08","13:08:24",4673.000,"cc",28393.877,6.00,6,0.100,2949.000,0.200,526.000,0.300,449.000,0.500,524.000,1.000,225.000,5.000,0
"04/01/08","13:08:30",4835.000,"cc",28334.906,6.00,6,0.100,3140.000,0.200,540.000,0.300,458.000,0.500,528.000,1.000,169.000,5.000,0
"04/01/08","13:08:36",4594.000,"cc",28349.063,6.00,6,0.100,3063.000,0.200,497.000,0.300,391.000,0.500,478.000,1.000,165.000,5.000,0
"04/01/08","13:08:42",4681.000,"cc",28246.957,6.00,6,0.100,3058.000,0.200,485.000,0.300,434.000,0.500,521.000,1.000,183.000,5.000,0
"04/01/08","13:08:48",4797.000,"cc",28373.803,6.00,6,0.100,3181.000,0.200,510.000,0.300,386.000,0.500,532.000,1.000,188.000,5.000,0
"04/01/08","13:08:54",5031.000,"cc",28285.318,6.00,6,0.100,3384.000,0.200,527.000,0.300,443.000,0.500,479.000,1.000,198.000,5.000,0
"04/01/08","13:09:00",5097.000,"cc",28292.256,6.00,6,0.100,3442.000,0.200,528.000,0.300,424.000,0.500,500.000,1.000,203.000,5.000,0
"04/01/08","13:09:06",4966.000,"cc",28332.020,6.00,6,0.100,3354.000,0.200,512.000,0.300,396.000,0.500,501.000,1.000,203.000,5.000,0
"04/01/08","13:09:12",5040.000,"cc",28267.236,6.00,6,0.100,3389.000,0.200,531.000,0.300,410.000,0.500,542.000,1.000,168.000,5.000,0
"04/01/08","13:09:18",5099.000,"cc",28290.004,6.00,6,0.100,3399.000,0.200,505.000,0.300,463.000,0.500,527.000,1.000,205.000,5.000,0
"04/01/08","13:09:24",5134.000,"cc",28337.584,6.00,6,0.100,3401.000,0.200,522.000,0.300,446.000,0.500,561.000,1.000,204.000,5.000,0
"04/01/08","13:09:30",5103.000,"cc",28321.539,6.00,6,0.100,3358.000,0.200,528.000,0.300,465.000,0.500,546.000,1.000,206.000,5.000,0
"04/01/08","13:09:36",5082.000,"cc",28331.777,6.00,6,0.100,3451.000,0.200,508.000,0.300,398.000,0.500,522.000,1.000,203.000,5.000,0
"04/01/08","13:09:42",5149.000,"cc",28313.316,6.00,6,0.100,3394.000,0.200,559.000,0.300,472.000,0.500,511.000,1.000,213.000,5.000,0
"04/01/08","13:09:48",5300.000,"cc",28292.852,6.00,6,0.100,3609.000,0.200,527.000,0.300,447.000,0.500,522.000,1.000,195.000,5.000,0
"04/01/08","13:09:54",5495.000,"cc",28343.148,6.00,6,0.100,3852.000,0.200,547.000,0.300,422.000,0.500,495.000,1.000,179.000,5.000,0
"04/01/08","13:10:00",5607.000,"cc",28278.336,6.00,6,0.100,3933.000,0.200,558.000,0.300,416.000,0.500,485.000,1.000,215.000,5.000,0
"04/01/08","13:10:06",5799.000,"cc",28280.068,6.00,6,0.100,4158.000,0.200,481.000,0.300,445.000,0.500,498.000,1.000,217.000,5.000,0
"04/01/08","13:10:12",5345.000,"cc",28354.813,6.00,6,0.100,3687.000,0.200,516.000,0.300,453.000,0.500,493.000,1.000,196.000,5.000,0
"04/01/08","13:10:18",5411.000,"cc",28285.738,6.00,6,0.100,3787.000,0.200,506.000,0.300,438.000,0.500,476.000,1.000,204.000,5.000,0
"04/01/08","13:10:24",5743.000,"cc",28305.508,6.00,6,0.100,4133.000,0.200,520.000,0.300,408.000,0.500,485.000,1.000,197.000,5.000,0
"04/01/08","13:10:30",5634.000,"cc",28370.863,6.00,6,0.100,3981.000,0.200,506.000,0.300,429.000,0.500,524.000,1.000,194.000,5.000,0
"04/01/08","13:10:36",5854.000,"cc",28324.561,6.00,6,0.100,4177.000,0.200,513.000,0.300,455.000,0.500,510.000,1.000,199.000,5.000,0
"04/01/08","13:10:42",5603.000,"cc",28285.574,6.00,6,0.100,3935.000,0.200,510.000,0.300,435.000,0.500,488.000,1.000,235.000,5.000,0
"04/01/08","13:10:48",5796.000,"cc",28338.680,6.00,6,0.100,4123.000,0.200,542.000,0.300,446.000,0.500,478.000,1.000,207.000,5.000,0
"04/01/08","13:10:54",5507.000,"cc",28294.574,6.00,6,0.100,3856.000,0.200,529.000,0.300,434.000,0.500,491.000,1.000,197.000,5.000,0
"04/01/08","13:11:00",5424.000,"cc",28353.463,6.00,6,0.100,3794.000,0.200,496.000,0.300,435.000,0.500,522.000,1.000,177.000,5.000,0
"04/01/08","13:11:06",5740.000,"cc",28326.648,6.00,6,0.100,4070.000,0.200,516.000,0.300,432.000,0.500,541.000,1.000,181.000,5.000,0
"04/01/08","13:11:12",5469.000,"cc",28334.834,6.00,6,0.100,3876.000,0.200,547.000,0.300,397.000,0.500,464.000,1.000,185.000,5.000,0
"04/01/08","13:11:18",5609.000,"cc",28289.285,6.00,6,0.100,3921.000,0.200,589.000,0.300,430.000,0.500,495.000,1.000,174.000,5.000,0
"04/01/08","13:11:24",5597.000,"cc",28324.658,6.00,6,0.100,3969.000,0.200,498.000,0.300,418.000,0.500,536.000,1.000,176.000,5.000,0
"04/01/08","13:11:30",5619.000,"cc",28271.215,6.00,6,0.100,3971.000,0.200,541.000,0.300,421.000,0.500,488.000,1.000,198.000,5.000,0
"04/01/08","13:11:36",5575.000,"cc",28362.440,6.00,6,0.100,3924.000,0.200,539.000,0.300,446.000,0.500,454.000,1.000,212.000,5.000,0
"04/01/08","13:11:42",5659.000,"cc",28301.035,6.00,6,0.100,3932.000,0.200,538.000,0.300,421.000,0.500,540.000,1.000,228.000,5.000,0
"04/01/08","13:11:48",5390.000,"cc",28285.711,6.00,6,0.100,3734.000,0.200,528.000,0.300,454.000,0.500,472.000,1.000,202.000,5.000,0
"04/01/08","13:11:54",5469.000,"cc",28292.223,6.00,6,0.100,3738.000,0.200,556.000,0.300,439.000,0.500,521.000,1.000,215.000,5.000,0
"04/01/08","13:12:00",5467.000,"cc",28348.387,6.00,6,0.100,3788.000,0.200,513.000,0.300,461.000,0.500,516.000,1.000,189.000,5.000,0
"04/01/08","13:12:06",5306.000,"cc",28348.551,6.00,6,0.100,3693.000,0.200,497.000,0.300,423.000,0.500,493.000,1.000,200.000,5.000,0
"04/01/08","13:12:12",5239.000,"cc",28289.248,6.00,6,0.100,3539.000,0.200,526.000,0.300,443.000,0.500,518.000,1.000,213.000,5.000,0
"04/01/08","13:12:18",5391.000,"cc",28328.467,6.00,6,0.100,3714.000,0.200,521.000,0.300,436.000,0.500,501.000,1.000,219.000,5.000,0
"04/01/08","13:12:24",5303.000,"cc",28342.555,6.00,6,0.100,3643.000,0.200,528.000,0.300,429.000,0.500,481.000,1.000,222.000,5.000,0
"04/01/08","13:12:30",5032.000,"cc",28284.705,6.00,6,0.100,3366.000,0.200,571.000,0.300,431.000,0.500,483.000,1.000,181.000,5.000,0
"04/01/08","13:12:36",5185.000,"cc",28341.410,6.00,6,0.100,3483.000,0.200,514.000,0.300,434.000,0.500,551.000,1.000,203.000,5.000,0
"04/01/08","13:12:42",4967.000,"cc",28346.510,6.00,6,0.100,3384.000,0.200,471.000,0.300,429.000,0.500,488.000,1.000,195.000,5.000,0
"04/01/08","13:12:48",5119.000,"cc",28307.022,6.00,6,0.100,3505.000,0.200,511.000,0.300,399.000,0.500,500.000,1.000,204.000,5.000,0
"04/01/08","13:12:54",5175.000,"cc",28277.996,6.00,6,0.100,3472.000,0.200,509.000,0.300,467.000,0.500,515.000,1.000,212.000,5.000,0
"04/01/08","13:13:00",5127.000,"cc",28317.119,6.00,6,0.100,3373.000,0.200,539.000,0.300,456.000,0.500,552.000,1.000,207.000,5.000,0
"04/01/08","13:13:06",5185.000,"cc",28313.656,6.00,6,0.100,3434.000,0.200,574.000,0.300,449.000,0.500,505.000,1.000,223.000,5.000,0
"04/01/08","13:13:12",5048.000,"cc",28316.004,6.00,6,0.100,3378.000,0.200,554.000,0.300,413.000,0.500,504.000,1.000,199.000,5.000,0
"04/01/08","13:13:18",5208.000,"cc",28313.139,6.00,6,0.100,3487.000,0.200,536.000,0.300,444.000,0.500,524.000,1.000,217.000,5.000,0
"04/01/08","13:13:24",5090.000,"cc",28292.203,6.00,6,0.100,3423.000,0.200,526.000,0.300,427.000,0.500,487.000,1.000,227.000,5.000,0
"04/01/08","13:13:30",5082.000,"cc",28354.500,6.00,6,0.100,3411.000,0.200,551.000,0.300,406.000,0.500,505.000,1.000,209.000,5.000,0
"04/01/08","13:13:36",5158.000,"cc",28310.731,6.00,6,0.100,3426.000,0.200,498.000,0.300,459.000,0.500,538.000,1.000,237.000,5.000,0
"04/01/08","13:13:42",4842.000,"cc",28317.000,6.00,6,0.100,3186.000,0.200,508.000,0.300,431.000,0.500,509.000,1.000,208.000,5.000,0
"04/01/08","13:13:48",4988.000,"cc",28302.816,6.00,6,0.100,3395.000,0.200,479.000,0.300,424.000,0.500,492.000,1.000,198.000,5.000,0
"04/01/08","13:13:54",5220.000,"cc",28280.631,6.00,6,0.100,3527.000,0.200,497.000,0.300,459.000,0.500,519.000,1.000,218.000,5.000,0
"04/01/08","13:14:00",5032.000,"cc",28351.494,6.00,6,0.100,3342.000,0.200,531.000,0.300,433.000,0.500,539.000,1.000,187.000,5.000,0
"04/01/08","13:14:06",5059.000,"cc",28317.457,6.00,6,0.100,3397.000,0.200,501.000,0.300,452.000,0.500,516.000,1.000,193.000,5.000,0
"04/01/08","13:14:12",4943.000,"cc",28316.375,6.00,6,0.100,3318.000,0.200,524.000,0.300,412.000,0.500,494.000,1.000,195.000,5.000,0
"04/01/08","13:14:18",4995.000,"cc",28296.617,6.00,6,0.100,3339.000,0.200,543.000,0.300,432.000,0.500,477.000,1.000,204.000,5.000,0
"04/01/08","13:14:24",5010.000,"cc",28329.363,6.00,6,0.100,3317.000,0.200,512.000,0.300,451.000,0.500,512.000,1.000,218.000,5.000,0
"04/01/08","13:14:30",4884.000,"cc",28281.914,6.00,6,0.100,3243.000,0.200,494.000,0.300,444.000,0.500,493.000,1.000,210.000,5.000,0
"04/01/08","13:14:36",5070.000,"cc",28324.117,6.00,6,0.100,3417.000,0.200,501.000,0.300,401.000,0.500,537.000,1.000,214.000,5.000,0
"04/01/08","13:14:42",5097.000,"cc",28371.742,6.00,6,0.100,3468.000,0.200,488.000,0.300,411.000,0.500,521.000,1.000,209.000,5.000,0
"04/01/08","13:14:48",5194.000,"cc",28288.266,6.00,6,0.100,3489.000,0.200,532.000,0.300,451.000,0.500,509.000,1.000,213.000,5.000,0
"04/01/08","13:14:54",4865.000,"cc",28285.131,6.00,6,0.100,3210.000,0.200,491.000,0.300,440.000,0.500,494.000,1.000,230.000,5.000,0
"04/01/08","13:15:00",5111.000,"cc",28304.322,6.00,6,0.100,3419.000,0.200,515.000,0.300,452.000,0.500,500.000,1.000,225.000,5.000,0
"04/01/08","13:15:06",4845.000,"cc",28327.690,6.00,6,0.100,3214.000,0.200,491.000,0.300,425.000,0.500,491.000,1.000,224.000,5.000,0
"04/01/08","13:15:12",5042.000,"cc",28284.303,6.00,6,0.100,3330.000,0.200,510.000,0.300,446.000,0.500,527.000,1.000,229.000,5.000,0
"04/01/08","13:15:18",5015.000,"cc",28330.318,6.00,6,0.100,3339.000,0.200,478.000,0.300,419.000,0.500,550.000,1.000,229.000,5.000,0
"04/01/08","13:15:24",5045.000,"cc",28333.018,6.00,6,0.100,3427.000,0.200,519.000,0.300,397.000,0.500,497.000,1.000,205.000,5.000,0
"04/01/08","13:15:30",4869.000,"cc",28275.850,6.00,6,0.100,3184.000,0.200,500.000,0.300,422.000,0.500,519.000,1.000,244.000,5.000,0
"04/01/08","13:15:36",4938.000,"cc",28352.315,6.00,6,0.100,3285.000,0.200,521.000,0.300,429.000,0.500,500.000,1.000,203.000,5.000,0
"04/01/08","13:15:42",4879.000,"cc",28252.031,6.00,6,0.100,3269.000,0.200,539.000,0.300,408.000,0.500,457.000,1.000,206.000,5.000,0
"04/01/08","13:15:48",5009.000,"cc",28358.152,6.00,6,0.100,3308.000,0.200,550.000,0.300,434.000,0.500,508.000,1.000,209.000,5.000,0
"04/01/08","13:15:54",4973.000,"cc",28434.979,6.00,6,0.100,3320.000,0.200,520.000,0.300,449.000,0.500,508.000,1.000,176.000,5.000,0
"04/01/08","13:16:00",5053.000,"cc",28315.426,6.00,6,0.100,3329.000,0.200,505.000,0.300,475.000,0.500,544.000,1.000,199.000,5.000,1.000
"04/01/08","13:16:06",4847.000,"cc",28241.539,6.00,6,0.100,3159.000,0.200,551.000,0.300,402.000,0.500,531.000,1.000,204.000,5.000,0
"04/01/08","13:16:12",4802.000,"cc",28312.090,6.00,6,0.100,3106.000,0.200,531.000,0.300,478.000,0.500,487.000,1.000,200.000,5.000,0
"04/01/08","13:16:18",4941.000,"cc",28354.287,6.00,6,0.100,3213.000,0.200,555.000,0.300,418.000,0.500,529.000,1.000,226.000,5.000,0
"04/01/08","13:16:24",4918.000,"cc",28323.297,6.00,6,0.100,3274.000,0.200,532.000,0.300,419.000,0.500,475.000,1.000,218.000,5.000,0
"04/01/08","13:16:30",4920.000,"cc",28241.606,6.00,6,0.100,3236.000,0.200,516.000,0.300,444.000,0.500,525.000,1.000,199.000,5.000,0
"04/01/08","13:16:36",4855.000,"cc",28308.486,6.00,6,0.100,3186.000,0.200,522.000,0.300,419.000,0.500,525.000,1.000,203.000,5.000,0
"04/01/08","13:16:42",4844.000,"cc",28361.283,6.00,6,0.100,3140.000,0.200,532.000,0.300,468.000,0.500,517.000,1.000,187.000,5.000,0
"04/01/08","13:16:48",4822.000,"cc",28310.670,6.00,6,0.100,3154.000,0.200,533.000,0.300,416.000,0.500,532.000,1.000,187.000,5.000,0
"04/01/08","13:16:54",4907.000,"cc",28265.527,6.00,6,0.100,3133.000,0.200,521.000,0.300,458.000,0.500,560.000,1.000,235.000,5.000,0